Showing default

TIANTUO 2, 40144

Orbit data source: Space-Track

TIANTUO 2, 40144 is a payload satellite owned by NUDT Changsha (CN) in SSO that was launched on Mon, 08 Sep 2014 UTC via a CHANG ZHENG 4B launch vehicle from the Taiyaun Space Center, China (TSC). Payloads include a variety of satellites, spacecraft, and rockets equipped with specific instruments for various scientific and technological missions. These include communications satellites like Starlink; space stations such as the ISS; scientific satellites like the Hubble; Earth observation satellites from companies like Planet Labs, Umbra, and HawkEye 360; GPS; miniature CubeSats for education and research; and military/defense satellites.

Not visible in the next 10 days
TIANTUO 2 details
Identifier
40144, 2014-053B
Orbit
SSO
Last TLE update4 hours ago
Origin
Flag of CNNUDT Changsha (CN / PRC)
ManufacturerNUDT Changsha
MissionOperational Amateur Technology
Bus & MotorTT2, Unknown motor
Mass67 kg wet, 67 kg dry
Launch date (UTC)
2014-09-08 (10 years ago)
Launch vehicle
CHANG ZHENG 4B
Launch site
Taiyaun Space Center, China (TSC)
Object type
Payload
Rocket body
Debris
Shape & HBRBox, 0.685 m
Radar Cross Section0.587 m², Medium (>0.1 m² and < 1m²)

Expand to show TLE details & history

TLE from 4 hours ago
0 TIANTUO 2
1 40144U 14053B   24361.51005481  .00217349  20654-4  50768-3 0  9992
2 40144  97.0972  86.9459 0001800  29.7067 330.4312 15.97017999578250
Epoch: 2024-12-26T12:14Z
Definitive object data (Epoch: 2024-12-26T12:14:28.735Z)
Latitude-0.00006°
Longitude167.83776°
Altitude284.857 km
Speed7.737 km/s
True Right ascension05h 47m 47s
True Declination0° 00' 00"
Sunlit
Object was in full shadow at TLE epoch
Visualization TLE readout
Latitude-56.40118°
Longitude178.76547°
Altitude304.31 km
Speed7.724 km/s
Apparent Right ascension05h 00m 51s
Apparent Declination-49° 51' 47"
Sunlit
Object is in daylight
Visualization observer readout
Local Sidereal Time15:53:04
Azimuth224.575° SW
Elevation-74.472°
Doppler factor1
Orbital elements
Apogee altitude280.746 km
Perigee altitude278.35 km
Semi-major axis6,657.685 km
Eccentricity0.00018
Inclination97.0972°
RAAN86.9459°
Arg. of periapsis29.7067°
True anomaly330.42102°
Mean anomaly330.4312°
Eccentric anomaly330.42611°
Mean motion3.99538 °/min
BSTAR0.00050768
Orbital period90.1 mins
Loading maneuver chart data...
Loading historical data...
Loading historical data...
Loading historical data...
Loading historical data...
Loading historical data...
Loading historical data...
Loading historical data...
Other satellites on launch #53 in the year 2014 (2014-09-08 UTC)

TIANTUO 2 Visibility forecast

Observer location: undefined°, undefined

TIANTUO 2 is not visible in the next 10 days
Span
Click to sort rows by Start time (UTC) header in descending order
Start Az.
Max El. time (UTC)
Max El. Az.
Max El.
End time (UTC)
End Az.
|